www.pogodaiklimat.ru

Погода и климат >> Архив погоды >> Россия >> Хакасия >> Бея


ПОГОДА в Бее

  • Прогноз погоды в Бее
  • Монитор погоды в Бее

АРХИВ ПОГОДЫ в Бее

Время (UTC), дата Ветер
(напр.,м/с)
 
Видим.   Явления Облачность Т
(С)
Тd
(С)
f
(%)
Тe
(С)
Тes
(С)
Комфортность P
(гПа)
Po
(гПа)
Тmin
(С)
Tmax
(С)
R
(мм)
R24
(мм)
S
(см)
18 14.05 штиль 0 н/о 10/1 600 м
[Cb cap Ac und]
-2.5 -3.3 94 -4 -4 1013.8 956.0
21 14.05 ЮВ 1 н/о 10/1 1000 м
[Sc Ac As Ci]
-3.0 -4.9 87 -5 -5 1011.0 953.3
00 15.05 СВ 2 20 км 10/1 1000 м
[Sc Ac As Ci]
-1.4 -2.9 90 -5 -5 1007.6 950.4 -4.1 0
03 15.05 В 4 20 км 10/4 1000 м
[Sc Ac As Ci fib]
+2.7 -1.3 75 -2 -2 1008.4 952.0
06 15.05 СВ 4 4000 м слаб. ливневой снег 10/8 600 м
[Cb cap Ac und]
+2.4 -0.5 81 -2 -2 1009.8 953.3
09 15.05 З 1 4000 м слаб. ливневой снег 10/8 600 м
[Cb cap Ac und]
+2.9 +0.1 82 +1 +1 1012.6 956.0
12 15.05 ЮЗ 3
{10}
20 км в посл. час ливневой снег 10/4 600 м
[Cb cap Ac As Ci fib]
+1.9 +0.6 91 -2 -2 1013.8 957.0 +5.6 1
15 15.05 ЮЗ 2 н/о 10/4 600 м
[Cb cap Ac As Ci fib]
+1.2 -0.6 88 -2 -2 1017.2 960.0
18 15.05 ЮЗ 2 н/о 10/4 600 м
[Cb cap Ac As Ci fib]
+1.2 -1.0 85 -2 -2 1018.6 961.3
21 15.05 ЮЗ 1 н/о в посл. час ливневой снег 10/5 600 м
[Cb cap Ac und]
+0.3 -0.4 95 -2 -2 1020.2 962.7
00 16.05 З 2 10 км {ливн. осадки} 10/3 600 м
[Cb cap Ac As Ci fib]
+1.6 -1.1 82 -2 -1 1020.4 963.1 0.0 0.2 <0.5
03 16.05 З 3 20 км 10/3 600 м
[Cb cap Ac As Ci]
+5.0 -0.6 67 +2 +2 1022.0 965.3
06 16.05 З 4
{11}
20 км {ливн. осадки} 10/3 600 м
[Cb cap Ac As Ci]
+5.9 +0.3 67 +2 +6 1019.9 963.5
09 16.05 С 4 4000 м слаб. крупа 10/6 600 м
[Cb cap Ac und]
+3.3 -0.3 77 -1 -1 1022.3 965.3
12 16.05 ЮЗ 3 20 км {ливн. осадки} 10/4 600 м
[Cb cap Ac As Ci]
+5.6 -0.1 67 +3 +3 1021.3 964.7 +8.0 0.7
15 16.05 ЮЗ 2 н/о 6/1 1000 м
[Sc Ac As Ci fib]
+2.1 -1.2 79 -1 -1 1024.1 966.7
18 16.05 ЮЗ 1 н/о 6/0 2000 м
[Ac trans Ci fib]
+0.4 -2.5 81 -1 -1 1024.5 966.7
21 16.05 ЮЗ 1 н/о 10/0 2000 м
[Ac As Ci]
+0.7 -2.0 82 -1 -1 1022.9 965.3
00 17.05 СЗ 1 50 км 10/0 2000 м
[Ac As Ci fib]
+1.6 -1.6 79 0 +1 1023.0 965.6 -1.7
03 17.05 З 3 20 км 10 баллов +6.1 -1.1 60 +3 +3 1023.3 966.7
06 17.05 ЮВ 3 4000 м слаб. крупа 10/6 600 м
[Cb cap Ac und]
+7.3 -3.0 48 +5 +5 1023.0 966.7
09 17.05 Ю 1 20 км в посл. час ливневой снег 10 баллов +5.7 -0.8 63 +5 +5 1023.3 966.7
12 17.05 В 2 20 км {ливн. осадки} 8/3 600 м
[Cb cap Ac As Ci fib]
+7.3 -2.4 50 +6 +6 1022.8 966.5 +9.3 0.3
15 17.05 ЮЗ 1 н/о 6 баллов +3.1 -1.5 72 +2 +2 1026.6 969.3
18 17.05 В 1 н/о н/о -0.5 -3.0 83 -2 -2 1027.4 969.3
21 17.05 Ю 1 н/о ясно -1.8 -3.8 86 -4 -4 1027.7 969.3
00 18.05 СВ 1 20 км 10/0
[Ci fib]
+3.4 -1.3 71 +2 +4 1025.9 968.7 -2.8
03 18.05 ЮВ 1 20 км 10/1 1000 м
[Sc Ci fib]
+9.2 -3.4 41 +9 +9 1024.0 968.0
06 18.05 С 2 20 км 10 баллов +12.3 -6.2 27 +12 +12 1020.6 965.3
09 18.05 С 2 20 км 10/1 1000 м
[Sc Ac As Ci fib]
+14.8 -5.6 24 +15 +15 1018.7 964.0
12 18.05 В 2 20 км 10/1 1000 м
[Sc Ac As Ci fib]
+13.2 -4.9 28 +13 +14 1016.3 961.4 +15.4
15 18.05 штиль 0 н/о 10/3 600 м
[Cb cap Ac As Ci]
+7.3 -1.6 53 +7 +7 1017.3 961.3
18 18.05 Ю 2 н/о 10/0
[Ci]
+2.5 -2.2 71 -0 -0 1016.9 960.0
21 18.05 Ю 1 н/о 10/0
[Ci]
+0.4 -3.3 76 -1 -1 1017.4 960.0
00 19.05 СВ 1 50 км 5/0
[Ci fib]
+6.2 -0.1 64 +5 +7 1014.8 958.7 -1.0
03 19.05 С 1 50 км 9 баллов +13.3 -2.2 34 +14 +15 1013.3 958.7
06 19.05 В 1 50 км 10/0
[Ci]
+20.3 -2.1 22 +21 +21 комфорт 1009.2 956.0
09 19.05 С 2 50 км 7 баллов +24.0 -2.6 17 +22 +25 комфорт 1007.1 954.7
12 19.05 ЮВ 2 50 км 10/3 1000 м
[Sc Ac As Ci fib]
+22.9 -0.7 21 +22 +22 комфорт 1006.2 953.6 +24.6
15 19.05 ЮВ 1 н/о 7 баллов +10.7 +2.5 57 +11 +11 1011.0 956.0
18 19.05 Ю 1 н/о 9/0 2000 м
[Ac As]
+10.0 +2.6 60 +10 +10 1011.1 956.0
21 19.05 Ю 3 н/о 9 баллов +10.3 +0.9 52 +9 +9 1011.1 956.0
00 20.05 З 1 20 км 10/0 2000 м
[Ac As Ci fib]
+13.7 +1.3 43 +14 +15 1010.2 955.8 +6.8
03 20.05 З 3 20 км 10 баллов +16.7 +5.0 46 +17 +17 1011.1 957.3
06 20.05 З 2 20 км слаб. ливневой дождь 10 баллов +18.5 +6.0 44 +19 +19 1009.4 956.0
09 20.05 З 2 20 км 10 баллов +20.2 +5.0 37 +21 +21 комфорт 1009.1 956.0
12 20.05 ЮЗ 3
{19}
10 км {ливн. осадки} 10/8 600 м
[Cb cap Ac und]
+13.6 +10.5 82 +12 +13 1011.1 956.7 +22.7 1
15 20.05 ЮЗ 2 н/о 10 баллов +14.3 +7.3 63 +14 +14 1010.2 956.0
18 20.05 ЮЗ 1 н/о 7 баллов +7.9 +5.5 85 +7 +7 1008.6 953.3
21 20.05 З 1 н/о 7 баллов +10.0 +7.1 82 +10 +10 1005.4 950.7
00 21.05 Ю 1 50 км 10/0 2000 м
[Ac As Ci fib]
+11.5 +8.1 80 +11 +12 1002.9 948.6 +7.8 0.0
03 21.05 ЮЗ 6-12
{14}
50 км 10/3 600 м
[Cb cap Ac As Ci fib]
+19.5 +6.5 43 +20 +21 999.9 947.1
06 21.05 З 3
{15}
50 км {ливн. осадки} 10/3 600 м
[Cb cap Ac As Ci fib]
+21.6 +8.3 42 +23 +27 комфорт 999.3 947.0
09 21.05 З 3
{16}
20 км слаб. ливневой дождь 10/6 600 м
[Cb cap Ac und]
+15.5 +10.9 74 +15 +15 1004.3 950.7
12 21.05 З 2 10 км ливневой дождь 10/8 600 м
[Cb cap Ac und]
+11.6 +10.4 92 +10 +10 1006.0 951.6 +21.6 6
15 21.05 З 2 н/о в посл. час ливневой дождь 10 баллов +9.9 +8.2 89 +8 +8 1008.2 953.3

 

Местоположение метеостанции Бея (Хакасия, Россия): широта 53.05 долгота 90.92 высота над уровнем моря 468 м.

В архиве по умолчанию представлена погода в Бее за последнюю неделю. Архивные данные за месяц целиком и за предыдущие месяцы, начиная с января 2011 года, Вы можете получить, выбрав интересующий диапазон дат из раскрывающегося списка и нажав кнопку "Ввод!".


*Определитесь, кто Вы:
робот инопланетянин человек

Внимание! Время в таблицах - всемирное. Для получения местного времени необходимо прибавить поправку, которая равна 7 ч.

Смотрите также архив погоды в соседних городах и на ближайших метеорологических станциях:

Погода в Аскизе (Хакасия, Россия) (31 км)
Погода в Саяногорске (Хакасия, Россия) (35 км)
Погода в Карловом Створе (Хакасия, Россия) (39 км)
Погода в Черемушках (Хакасия, Россия) (39 км)
Погода в Таштыпе (Хакасия, Россия) (75 км)
Погода в Уйбате (Хакасия, Россия) (83 км)
Погода в Хакасской (Хакасия, Россия) (84 км)
Погода в Кантегире (Хакасия, Россия) (86 км)
Погода в Минусинске (Красноярский край, Россия) (91 км)
Погода в Ермаковском (Красноярский край, Россия) (104 км)

Пояснения к столбцам:

Ветер - указаны скорость ветра в м/с - средняя за 10 мин, порывы в срок и между сроками (в фигурных скобках) и направление, откуда дует ветер: С - северный, СВ - северо-восточный, В - восточный, ЮВ - юго-восточный, Ю - южный, ЮЗ - юго-западный, З - западный, СЗ - северо-западный.
Видимость - горизонтальная дальность видимости в метрах или километрах. При видимости от 1 до 10 км при отсутствии осадков обычно наблюдается дымка, при ухудшении видимости до 1 км и менее - туман. В сухую погоду видимость может ухудшаться дымом, пылью или мглою.
Явления - указаны атмосферные явления, наблюдавшиеся в срок или в последний час перед сроком; фигурными скобками обозначены явления, наблюдавшиеся между сроками (за 1-3 часа до срока); квадратными скобками обозначены град или гололедные отложения с указанием их диаметра в мм.
Облачность - указаны через наклонную черту общая и нижняя облачность в баллах и высота нижней границы облаков в метрах; квадратными скобками обозначены формы облаков: Ci - перистые, Cs - перисто-слоистые, Cc - перисто-кучевые, Ac - высококучевые, As - высокослоистые, Sc - слоисто-кучевые, Ns - слоисто-дождевые, Cu - кучевые, Cb - кучево-дождевые. Подробнее классификацию облаков см. в Атласе облаков (PDF).
T - Температура воздуха - температура, измеренная на высоте 2 м над землей.
Td - Температура точки росы - температура, при понижении до которой содержащийся в воздухе водяной пар достигнет насыщения.
f - Относительная влажность воздуха - влажноcть воздуха, измеренная на высоте 2 м над землей.
Te - Эффективная температура - температура, которую ощущает одетый по сезону человек в тени. Характеристика душности погоды. При расчете учитывается влияние влажности воздуха и скорости ветра на теплоощущения человека.
Tes - Эффективная температура на солнце - температура, которую ощущает человек, с поправкой на солнечный нагрев. Характеристика знойности погоды. Зависит от высоты солнца над горизонтом, облачности и скорости ветра. Ночью, в пасмурную погоду, а также при ветре 12 м/с и более поправка равна нулю.
P - Атмосферное давление - приведенное к уровню моря атмосферное давление.
Po - Атмосферное давление - измеренное на уровне метеостанции атмосферное давление.
Tmin - Минимальная температура - минимум температуры воздуха на высоте 2 м над землей.
Tmax - Максимальная температура - максимум температуры воздуха на высоте 2 м над землей.
R - Количество осадков - Количество выпавших осадков за период времени, мм. При наведении курсора мыши на число - период времени, за который выпало указанное количество осадков.
R24 - Количество осадков - Количество выпавших осадков за 24 часа, мм.
S - Снежный покров - Высота снежного покрова, см. При наведении курсора мыши на число - состояние снежного покрова и степень покрытия местности в баллах.